Weather History for Three Rivers, MI

Change the Weather History Date:

Wednesday, January 31, 2007

  Actual Average Record
Temperature  
Mean Temperature 11 °F -  
Max Temperature 19 °F 31 °F 53 °F (2012)
Min Temperature 3 °F 16 °F -6 °F (1971)
Degree Days  
Heating Degree Days 54    
Moisture  
Dew Point 5 °F    
Average Humidity 76    
Maximum Humidity 93    
Minimum Humidity 53    
Precipitation  
Precipitation 0.00 in - - ()
Sea Level Pressure  
Sea Level Pressure 30.09 in    
Wind  
Wind Speed 8 mph (SSW)    
Max Wind Speed 12 mph    
Max Gust Speed 17 mph    
Visibility 9 miles    
Events Snow    
Averages and records for this station are not official NWS values.
T = Trace of Precipitation, MM = Missing Value Source: NWS Daily Summary

Daily Weather History Graph

Daily Weather History Graph

Search for Another Location

Airport:

Trip Planner

Search our weather history database for the weather conditions in past years. The results will help you decide how hot, cold, wet, or windy it might be!

Date:

Astronomy

Jan. 31, 2007 Rise Set
Actual Time 7:56 AM EST 5:55 PM EST
Civil Twilight 7:26 AM EST 6:25 PM EST
Nautical Twilight 6:53 AM EST 6:58 PM EST
Astronomical Twilight 6:20 AM EST 7:31 PM EST
Moon 4:15 PM EST (1/31) 7:18 AM EST (1/31)
Length of Visible Light 10h 58m
Length of Day
9h 59m
Waxing Gibbous, 98% of the Moon is Illuminated
Jan 31
Waxing Gibbous
Feb 2
Full
Feb 10
Last Quarter
Feb 17
New
Feb 24
First Quarter

Hourly Weather History & Observations

Time (EST) Temp. Windchill Dew Point Humidity Pressure Visibility Wind Dir Wind Speed Gust Speed Precip Events Conditions
12:15 AM 15.8 °F 8.6 °F 12.2 °F 86% 30.10 in 10.0 mi SW 4.6 mph - N/A   Overcast
12:35 AM 15.8 °F 10.2 °F 12.2 °F 86% 30.10 in 10.0 mi SW 3.5 mph - N/A   Mostly Cloudy
12:56 AM 14.0 °F 1.2 °F 12.2 °F 93% 30.09 in 7.0 mi West 10.4 mph - N/A Snow Light Snow
1:16 AM 19.4 °F 7.9 °F 14.0 °F 80% 30.10 in 10.0 mi West 10.4 mph - N/A Snow Light Snow
1:37 AM 19.4 °F 10.4 °F 14.0 °F 80% 30.10 in 7.0 mi WSW 6.9 mph - N/A Snow Light Snow
1:55 AM 19.4 °F 8.6 °F 14.0 °F 80% 30.10 in 10.0 mi WSW 9.2 mph 17.3 mph N/A Snow Light Snow
2:16 AM 19.4 °F 8.6 °F 12.2 °F 74% 30.10 in 10.0 mi West 9.2 mph - N/A Snow Light Snow
2:35 AM 17.6 °F 6.4 °F 12.2 °F 79% 30.10 in 10.0 mi West 9.2 mph - N/A Snow Light Snow
2:55 AM 17.6 °F 5.7 °F 12.2 °F 79% 30.10 in 7.0 mi West 10.4 mph - N/A Snow Light Snow
3:16 AM 17.6 °F 8.2 °F 12.2 °F 79% 30.10 in 5.0 mi WSW 6.9 mph - N/A Snow Light Snow
3:36 AM 17.6 °F 8.2 °F 12.2 °F 79% 30.10 in 7.0 mi WSW 6.9 mph - N/A Snow Light Snow
3:57 AM 17.6 °F 8.2 °F 12.2 °F 79% 30.10 in 10.0 mi WSW 6.9 mph - N/A Snow Light Snow
4:15 AM 17.6 °F 9.3 °F 10.4 °F 73% 30.10 in 10.0 mi WSW 5.8 mph - N/A   Overcast
4:35 AM 15.8 °F 5.1 °F 10.4 °F 79% 30.10 in 10.0 mi SSW 8.1 mph - N/A Snow Light Snow
5:16 AM 12.2 °F -0.2 °F 8.6 °F 85% 30.11 in 7.0 mi SSW 9.2 mph - N/A Snow Light Snow
5:36 AM 10.4 °F -4.1 °F 8.6 °F 92% 30.11 in 7.0 mi SSW 11.5 mph - N/A Snow Light Snow
5:55 AM 10.4 °F -3.3 °F 6.8 °F 85% 30.12 in 7.0 mi SSW 10.4 mph - N/A Snow Light Snow
6:17 AM 8.6 °F -4.7 °F 6.8 °F 92% 30.12 in 7.0 mi SSW 9.2 mph - N/A Snow Light Snow
6:35 AM 8.6 °F -5.5 °F 5.0 °F 85% 30.12 in 10.0 mi SSW 10.4 mph - N/A Snow Light Snow
6:55 AM 6.8 °F -5.9 °F 3.2 °F 85% 30.12 in 7.0 mi SSW 8.1 mph - N/A Snow Light Snow
7:15 AM 6.8 °F -5.9 °F 3.2 °F 85% 30.13 in 10.0 mi SW 8.1 mph - N/A   Mostly Cloudy
7:35 AM 5.0 °F -6.9 °F 1.4 °F 85% 30.14 in 10.0 mi SW 6.9 mph - N/A Snow Light Snow
7:57 AM 6.8 °F -6.9 °F 3.2 °F 85% 30.15 in 7.0 mi SSW 9.2 mph - N/A Snow Light Snow
8:15 AM 3.2 °F -11.3 °F 1.4 °F 92% 30.15 in 4.0 mi South 9.2 mph - N/A Snow Light Snow
8:36 AM 3.2 °F -11.3 °F -0.4 °F 85% 30.15 in 4.0 mi South 9.2 mph - N/A Snow Light Snow
8:56 AM 3.2 °F -12.2 °F -0.4 °F 85% 30.15 in 3.0 mi SSW 10.4 mph - N/A Snow Light Snow
9:16 AM 3.2 °F -12.2 °F -0.4 °F 85% 30.15 in 4.0 mi SSW 10.4 mph - N/A Snow Light Snow
9:36 AM 3.2 °F -13.1 °F -0.4 °F 85% 30.15 in 10.0 mi SSW 11.5 mph - N/A   Scattered Clouds
9:56 AM 5.0 °F -8.1 °F -0.4 °F 78% 30.15 in 10.0 mi SSW 8.1 mph - N/A   Clear
10:15 AM 6.8 °F -4.8 °F 1.4 °F 79% 30.14 in 10.0 mi SW 6.9 mph - N/A   Clear
10:36 AM 8.6 °F -1.3 °F 3.2 °F 79% 30.14 in 10.0 mi SW 5.8 mph - N/A   Clear
10:56 AM 10.4 °F 0.8 °F 3.2 °F 73% 30.14 in 10.0 mi SW 5.8 mph - N/A   Clear
11:17 AM 10.4 °F -1.5 °F 3.2 °F 73% 30.15 in 10.0 mi SSW 8.1 mph - N/A   Clear
11:35 AM 10.4 °F -1.5 °F 3.2 °F 73% 30.15 in 10.0 mi South 8.1 mph - N/A   Clear
11:57 AM 12.2 °F 0.7 °F 5.0 °F 73% 30.14 in 10.0 mi South 8.1 mph - N/A   Clear
12:16 PM 12.2 °F 0.7 °F 5.0 °F 73% 30.13 in 10.0 mi South 8.1 mph - N/A   Clear
12:38 PM 10.4 °F -1.5 °F 3.2 °F 73% 30.12 in 10.0 mi SSW 8.1 mph - N/A   Clear
12:57 PM 12.2 °F -1.0 °F 5.0 °F 73% 30.11 in 10.0 mi South 10.4 mph - N/A   Clear
1:16 PM 12.2 °F -0.2 °F 3.2 °F 67% 30.10 in 10.0 mi South 9.2 mph - N/A   Clear
1:36 PM 12.2 °F -1.0 °F 1.4 °F 62% 30.09 in 10.0 mi South 10.4 mph - N/A   Clear
1:56 PM 12.2 °F -1.0 °F 1.4 °F 62% 30.09 in 10.0 mi SSW 10.4 mph - N/A   Clear
2:16 PM 12.2 °F -1.8 °F -0.4 °F 57% 30.08 in 10.0 mi South 11.5 mph - N/A   Clear
2:36 PM 14.0 °F 1.2 °F -0.4 °F 53% 30.07 in 10.0 mi South 10.4 mph - N/A   Clear
3:16 PM 14.0 °F 1.2 °F -0.4 °F 53% 30.06 in 10.0 mi SSW 10.4 mph - N/A   Clear
3:36 PM 14.0 °F 0.5 °F -0.4 °F 53% 30.06 in 10.0 mi SSW 11.5 mph - N/A   Clear
3:55 PM 14.0 °F 0.5 °F 1.4 °F 57% 30.06 in 10.0 mi SSW 11.5 mph - N/A   Clear
4:15 PM 14.0 °F 1.2 °F 1.4 °F 57% 30.04 in 10.0 mi SSW 10.4 mph - N/A   Clear
4:35 PM 14.0 °F 1.2 °F 1.4 °F 57% 30.03 in 10.0 mi South 10.4 mph - N/A   Clear
4:56 PM 12.2 °F -1.0 °F 3.2 °F 67% 30.03 in 10.0 mi South 10.4 mph - N/A   Clear
5:18 PM 12.2 °F -1.0 °F 3.2 °F 67% 30.02 in 10.0 mi South 10.4 mph - N/A   Clear
5:36 PM 12.2 °F -0.2 °F 3.2 °F 67% 30.01 in 10.0 mi SSW 9.2 mph - N/A   Clear
5:55 PM 12.2 °F 1.7 °F 5.0 °F 73% 30.00 in 10.0 mi South 6.9 mph - N/A   Clear
6:16 PM 12.2 °F -0.2 °F 5.0 °F 73% 30.00 in 10.0 mi South 9.2 mph - N/A   Clear
6:36 PM 12.2 °F 0.7 °F 6.8 °F 79% 30.00 in 10.0 mi South 8.1 mph - N/A   Scattered Clouds
7:01 PM 14.0 °F 2.9 °F 6.8 °F 73% 29.98 in 10.0 mi South 8.1 mph - N/A   Overcast
7:16 PM 14.0 °F 1.2 °F 6.8 °F 73% 29.97 in 10.0 mi South 10.4 mph - N/A   Overcast
7:38 PM 15.8 °F 4.2 °F 8.6 °F 73% 29.97 in 10.0 mi South 9.2 mph - N/A   Overcast
8:16 PM 15.8 °F 3.4 °F 8.6 °F 73% 29.95 in 10.0 mi South 10.4 mph - N/A   Overcast
8:36 PM 15.8 °F 4.2 °F 8.6 °F 73% 29.94 in 10.0 mi South 9.2 mph - N/A   Overcast
8:56 PM 15.8 °F 4.2 °F 8.6 °F 73% 29.93 in 10.0 mi South 9.2 mph - N/A   Overcast
9:16 PM 15.8 °F 5.1 °F 8.6 °F 73% 29.92 in 10.0 mi South 8.1 mph - N/A   Overcast
9:36 PM 15.8 °F 6.1 °F 8.6 °F 73% 29.92 in 10.0 mi South 6.9 mph - N/A   Overcast
9:56 PM 15.8 °F 7.2 °F 8.6 °F 73% 29.92 in 10.0 mi South 5.8 mph - N/A   Overcast
10:16 PM 15.8 °F 6.1 °F 8.6 °F 73% 29.91 in 10.0 mi South 6.9 mph - N/A   Overcast
10:36 PM 15.8 °F 5.1 °F 10.4 °F 79% 29.90 in 10.0 mi South 8.1 mph - N/A   Overcast
10:56 PM 17.6 °F 6.4 °F 10.4 °F 73% 29.89 in 10.0 mi SSW 9.2 mph - N/A   Overcast
11:16 PM 17.6 °F 6.4 °F 10.4 °F 73% 29.89 in 10.0 mi SSW 9.2 mph - N/A   Mostly Cloudy
11:37 PM 17.6 °F 7.3 °F 10.4 °F 73% 29.88 in 10.0 mi SSW 8.1 mph - N/A   Mostly Cloudy